Date,TemperatureHighF,TemperatureAvgF,TemperatureLowF,DewpointHighF,DewpointAvgF,DewpointLowF,HumidityHigh,HumidityAvg,HumidityLow,PressureMaxIn,PressureMinIn,WindSpeedMaxMPH,WindSpeedAvgMPH,GustSpeedMaxMPH,PrecipitationSumIn
2013-2-1,59.0,44.8,30.0,38.0,28.1,18.0,66,53,38,30.06,29.83,6,2,15,0.02
2013-2-2,66.0,54.6,44.0,45.0,38.0,33.0,85,56,30,29.99,29.81,6,2,14,0.01
2013-2-3,70.0,54.1,37.0,38.0,31.8,27.0,80,48,21,29.99,29.65,8,2,17,0.01
2013-2-4,73.0,60.5,52.0,57.0,49.2,30.0,91,68,34,29.65,29.44,8,4,17,0.01
2013-2-5,68.0,60.6,56.0,60.0,57.4,54.0,98,90,70,29.67,29.53,4,1,11,0.01
2013-2-6,76.0,63.3,56.0,63.0,57.1,54.0,98,82,52,29.67,29.51,12,4,19,0.00
2013-2-7,79.0,64.4,55.0,59.0,53.9,41.0,95,72,29,29.77,29.47,12,6,24,0.00
2013-2-8,64.0,52.4,42.0,47.0,33.2,20.0,77,53,19,29.92,29.77,8,2,16,0.00
2013-2-9,58.0,50.3,46.0,57.0,46.4,34.0,97,87,61,29.80,29.41,11,6,22,0.00
2013-2-10,68.0,58.6,48.0,64.0,38.8,25.0,97,54,21,29.67,29.31,14,3,30,0.02
2013-2-11,55.0,50.7,47.0,40.0,35.0,29.0,74,56,41,29.81,29.66,7,3,18,0.02
2013-2-12,50.0,46.8,42.0,47.0,43.8,37.0,96,89,76,29.72,29.54,7,2,18,0.27
2013-2-13,57.0,45.8,38.0,39.0,35.3,30.0,88,69,37,29.83,29.70,7,2,15,0.02
2013-2-14,69.0,51.6,35.0,41.0,36.7,32.0,91,61,30,29.78,29.66,5,1,10,0.00
2013-2-15,53.0,46.8,37.0,38.0,28.9,19.0,69,51,31,30.06,29.74,7,3,17,0.00
2013-2-16,57.0,42.9,29.0,30.0,25.9,22.0,80,53,31,30.09,29.84,4,1,8,0.00
2013-2-17,71.0,54.3,37.0,45.0,33.8,29.0,78,50,21,29.84,29.57,14,5,25,0.00
2013-2-18,77.0,61.5,52.0,56.0,44.1,30.0,84,57,25,29.79,29.42,13,7,28,0.00
2013-2-19,62.0,51.3,40.0,38.0,27.5,22.0,65,42,22,29.99,29.78,7,3,14,0.02
2013-2-20,50.0,44.6,42.0,41.0,37.5,33.0,86,76,52,29.83,29.45,10,5,20,0.14
2013-2-21,68.0,53.0,42.0,49.0,39.1,25.0,94,65,20,29.60,29.27,10,5,23,0.22
2013-2-22,49.0,39.5,31.0,38.0,26.9,22.0,80,61,43,29.82,29.59,7,2,16,0.20
2013-2-23,55.0,42.5,32.0,31.0,28.0,25.0,75,58,38,29.78,29.59,5,1,11,0.00
2013-2-24,70.0,53.1,34.0,46.0,38.0,29.0,82,59,38,29.60,29.28,11,5,23,0.00
2013-2-25,60.0,50.8,40.0,51.0,39.9,29.0,90,68,36,29.36,29.15,15,8,29,0.04
2013-2-26,58.0,46.3,39.0,34.0,31.9,30.0,74,59,37,29.57,29.36,14,5,27,0.01
2013-2-27,57.0,46.0,37.0,32.0,27.8,20.0,79,53,25,29.92,29.55,9,4,18,0.00
2013-2-28,59.0,46.4,35.0,29.0,26.4,23.0,73,48,26,29.98,29.85,8,4,20,0.00